Change the Weather History Date:

Sunday, May 19, 2013

  Actual Average Record
Temperature  
Mean Temperature 66 °F -  
Max Temperature 70 °F 74 °F 78 °F (2006)
Min Temperature 61 °F 56 °F 50 °F (2011)
Growing Degree Days 16 (Base 50)    
Moisture  
Dew Point 56 °F    
Average Humidity 71    
Maximum Humidity 95    
Minimum Humidity 41    
Precipitation  
Precipitation 0.00 in 0.04 in - ()
Sea Level Pressure  
Sea Level Pressure 29.95 in    
Wind  
Wind Speed 7 mph ()    
Max Wind Speed 16 mph    
Max Gust Speed -    
Visibility 7.7 miles    
Events      
Averages and records for this station are not official NWS values.
T = Trace of Precipitation, MM = Missing Value Source: Averaged Metar Reports

Daily Weather History Graph

Daily Weather History Graph

Search for Another Location

Airport or City:

Trip Planner

Search our weather history database for the weather conditions in past years. The results will help you decide how hot, cold, wet, or windy it might be!

Date:

Astronomy

May. 19, 2013 Rise Set
Actual Time 5:47 AM CEST 8:26 PM CEST
Civil Twilight 5:14 AM CEST 8:59 PM CEST
Nautical Twilight 4:34 AM CEST 9:39 PM CEST
Astronomical Twilight 3:49 AM CEST 10:25 PM CEST
Moon 2:08 PM CEST (5/19) 2:06 AM CEST (5/19)
Length of Visible Light 15h 44m
Length of Day
14h 39m
Waxing Gibbous, 62% of the Moon is Illuminated
May 19
Waxing Gibbous
May 25
Full
May 31
Last Quarter
Jun 8
New
Jun 16
First Quarter

Hourly Weather History & Observations

Time (CEST) Temp. Dew Point Humidity Pressure Visibility Wind Dir Wind Speed Gust Speed Precip Events Conditions
12:55 AM 66.2 °F 59.0 °F 78% 29.83 in - SSE 3.5 mph - N/A   Clear
1:55 AM 62.6 °F 57.2 °F 82% 29.83 in - South 3.5 mph - N/A   Clear
2:00 AM 63 °F 56 °F 72% 29.83 in 6 mi South 3.5 mph - -  
2:55 AM 64.4 °F 62.6 °F 94% 29.83 in 6.2 mi WSW 5.8 mph - N/A   Scattered Clouds
3:55 AM 64.4 °F 62.6 °F 94% 29.83 in 6.2 mi WSW 5.8 mph - N/A   Scattered Clouds
4:55 AM 64.4 °F 62.6 °F 94% 29.83 in 6.2 mi NNW 6.9 mph - N/A   Scattered Clouds
5:00 AM 64 °F 63 °F 95% 29.86 in 6 mi NNW 6.9 mph - -   Partly Cloudy
5:55 AM 62.6 °F 60.8 °F 94% 29.83 in 6.2 mi WNW 4.6 mph - N/A   Scattered Clouds
6:55 AM 62.6 °F 57.2 °F 82% 29.89 in 6.2 mi West 11.5 mph - N/A   Partly Cloudy
7:55 AM 62.6 °F 55.4 °F 77% 29.92 in 6.2 mi West 16.1 mph - N/A   Scattered Clouds
8:00 AM 63 °F 56 °F 70% 29.92 in 6 mi West 16.1 mph - -   Mostly Cloudy
8:55 AM 64.4 °F 51.8 °F 64% 29.92 in 6.2 mi West 15.0 mph - N/A   Scattered Clouds
10:55 AM 68.0 °F 55.4 °F 64% 29.95 in 6.2 mi West 16.1 mph - N/A   Partly Cloudy
11:00 AM 68 °F 55 °F 54% 29.97 in 16 mi West 16.1 mph - -   Scattered Clouds
11:55 AM 68.0 °F 55.4 °F 64% 29.98 in 6.2 mi WSW 15.0 mph - N/A   Partly Cloudy
12:55 PM 68.0 °F 55.4 °F 64% 30.01 in 6.2 mi WSW 15.0 mph - N/A   Partly Cloudy
1:55 PM 68.0 °F 55.4 °F 64% 30.01 in 6.2 mi West 12.7 mph - N/A   Partly Cloudy
2:00 PM 69 °F 55 °F 52% 30.01 in 16 mi West 12.7 mph - -   Scattered Clouds
2:55 PM 69.8 °F 53.6 °F 56% 30.01 in 6.2 mi West 12.7 mph - N/A   Partly Cloudy
3:55 PM 68.0 °F 50.0 °F 52% 30.01 in 6.2 mi West 13.8 mph - N/A   Partly Cloudy
5:00 PM 69 °F 50 °F 41% 30.03 in 16 mi West 9.2 mph - -   Scattered Clouds
5:55 PM 68.0 °F 51.8 °F 56% 30.04 in 6.2 mi West 9.2 mph - N/A   Partly Cloudy
6:55 PM 66.2 °F 50.0 °F 56% 30.04 in - WSW 5.8 mph - N/A   Clear
7:55 PM 66.2 °F 51.8 °F 60% 30.04 in - SW 6.9 mph - N/A   Clear
8:00 PM 66 °F 52 °F 51% 30.05 in 12 mi SW 6.9 mph - -  
8:55 PM 62.6 °F 55.4 °F 77% 30.04 in 6.2 mi SSW 4.6 mph - N/A   Partly Cloudy
9:55 PM 62.6 °F 55.4 °F 77% 30.04 in 6.2 mi SSW 5.8 mph - N/A   Scattered Clouds
10:55 PM 62.6 °F 59.0 °F 88% 30.04 in - South 5.8 mph - N/A   Clear
11:00 PM 63 °F 59 °F 83% 30.06 in 7 mi South 5.8 mph - -